Location: Unspecified
(39.1833°N, 0.0000°E)
Time: 20:10:02
(UTC+00:00)

First-Move - Visible Passes

Search period start: 20 January 2020 00:00
Search period end: 30 January 2020 00:00
Orbit: 576 x 669 km, 97.6° (Epoch: 20 January)

Date Brightness Start Highest point End Pass type
(mag) Time Alt. Az. Time Alt. Az. Time Alt. Az.
20 Jan ? 05:59:54 10° NNE 06:04:11 66° E 06:08:34 10° S visible
20 Jan ? 18:32:09 10° SW 18:34:22 14° W 18:36:36 10° WNW visible
21 Jan ? 06:18:03 10° N 06:22:21 76° WNW 06:26:46 10° SSW visible
22 Jan ? 05:01:42 10° ENE 05:04:06 14° E 05:06:31 10° SE visible
22 Jan ? 06:36:20 10° N 06:40:29 47° WNW 06:44:44 10° SSW visible
22 Jan ? 17:30:10 10° S 17:34:14 72° WSW 17:38:20 10° NNW visible
23 Jan ? 05:18:56 10° NE 05:22:24 23° E 05:25:56 10° SSE visible
23 Jan ? 17:48:34 10° S 17:52:26 42° W 17:56:21 10° NNW visible
24 Jan ? 05:36:38 10° NNE 05:40:40 36° E 05:44:47 10° SSE visible
24 Jan ? 18:07:16 10° SSW 18:10:41 26° W 18:14:08 10° NW visible
25 Jan ? 05:54:34 10° NNE 05:58:54 59° E 06:03:18 10° S visible
25 Jan ? 18:26:26 10° SW 18:28:58 16° W 18:31:33 10° NW visible
26 Jan ? 06:12:40 10° N 06:17:04 86° WNW 06:21:34 10° SSW visible
27 Jan ? 04:56:39 10° ENE 04:58:46 13° E 05:00:53 10° ESE visible
27 Jan ? 06:30:56 10° N 06:35:13 53° WNW 06:39:35 10° SSW visible
28 Jan ? 05:13:43 10° NE 05:17:05 21° E 05:20:30 10° SE visible
28 Jan ? 17:43:07 10° S 17:47:03 48° W 17:51:04 10° NNW visible
29 Jan ? 05:31:21 10° NNE 05:35:21 33° E 05:39:26 10° SSE visible
29 Jan ? 18:01:43 10° SSW 18:05:17 29° W 18:08:55 10° NW visible
